Weather History for Del Rio, TX

Change the Weather History Date:

Saturday, February 15, 2014

  Actual Average Record
Temperature  
Mean Temperature 66 °F 57 °F  
Max Temperature 81 °F 69 °F 87 °F (1990)
Min Temperature 50 °F 45 °F 23 °F (1909)
Degree Days  
Heating Degree Days 0 9  
Month to date heating degree days 222 152  
Since 1 July heating degree days 1369 1142  
Cooling Degree Days 1 0  
Month to date cooling degree days 6 0  
Year to date cooling degree days 6 3  
Growing Degree Days 16 (Base 50)    
Moisture  
Dew Point 36 °F    
Average Humidity 35    
Maximum Humidity 48    
Minimum Humidity 21    
Precipitation  
Precipitation 0.00 in 0.03 in 0.61 in (1931)
Month to date precipitation 0.03 0.45  
Year to date precipitation 0.03 1.17  
Sea Level Pressure  
Sea Level Pressure 30.02 in    
Wind  
Wind Speed 9 mph (ESE)    
Max Wind Speed 22 mph    
Max Gust Speed 27 mph    
Visibility 10 miles    
Events      
T = Trace of Precipitation, MM = Missing Value Source: NWS Daily Summary

Daily Weather History Graph

Daily Weather History Graph

Search for Another Location

Airport:

Trip Planner

Search our weather history database for the weather conditions in past years. The results will help you decide how hot, cold, wet, or windy it might be!

Date:

Astronomy

Feb. 15, 2014 Rise Set
Actual Time 7:22 AM CST 6:33 PM CST
Civil Twilight 6:58 AM CST 6:57 PM CST
Nautical Twilight 6:30 AM CST 7:25 PM CST
Astronomical Twilight 6:02 AM CST 7:53 PM CST
Moon 7:26 PM CST (2/15) 7:29 AM CST (2/15)
Length of Visible Light 11h 59m
Length of Day
11h 10m
Waxing Gibbous, 99% of the Moon is Illuminated
Feb 15
Waxing Gibbous
Feb 22
Last Quarter
Mar 1
New
Mar 8
First Quarter
Mar 16
Full

Hourly Weather History & Observations

Time (CST) Temp. Dew Point Humidity Pressure Visibility Wind Dir Wind Speed Gust Speed Precip Events Conditions
12:53 AM 55.0 °F 30.9 °F 40% 30.06 in 10.0 mi Calm Calm - N/A   Clear
1:53 AM 50.0 °F 30.9 °F 48% 30.07 in 10.0 mi SSW 4.6 mph - N/A   Clear
2:53 AM 53.1 °F 30.9 °F 43% 30.07 in 10.0 mi Calm Calm - N/A   Clear
3:53 AM 53.1 °F 30.9 °F 43% 30.07 in 10.0 mi Calm Calm - N/A   Clear
4:53 AM 52.0 °F 30.9 °F 45% 30.07 in 10.0 mi ESE 5.8 mph - N/A   Clear
5:53 AM 53.1 °F 30.0 °F 41% 30.07 in 10.0 mi ESE 8.1 mph - N/A   Clear
6:53 AM 52.0 °F 30.0 °F 43% 30.07 in 10.0 mi ESE 8.1 mph - N/A   Clear
7:53 AM 54.0 °F 30.9 °F 41% 30.09 in 10.0 mi ESE 6.9 mph - N/A   Clear
8:53 AM 59.0 °F 30.9 °F 35% 30.09 in 10.0 mi ESE 11.5 mph - N/A   Clear
9:53 AM 64.9 °F 30.9 °F 28% 30.10 in 10.0 mi SE 17.3 mph 25.3 mph N/A   Clear
10:53 AM 69.1 °F 32.0 °F 25% 30.09 in 10.0 mi SE 16.1 mph 23.0 mph N/A   Clear
11:53 AM 72.0 °F 35.1 °F 26% 30.06 in 10.0 mi SE 16.1 mph 27.6 mph N/A   Clear
12:53 PM 73.9 °F 36.0 °F 25% 30.04 in 10.0 mi SSE 17.3 mph - N/A   Clear
1:53 PM 75.9 °F 36.0 °F 23% 30.00 in 10.0 mi SE 13.8 mph 24.2 mph N/A   Clear
2:53 PM 79.0 °F 37.9 °F 23% 29.97 in 10.0 mi SSE 13.8 mph 21.9 mph N/A   Clear
3:53 PM 80.1 °F 37.9 °F 22% 29.95 in 10.0 mi SE 12.7 mph - N/A   Clear
4:53 PM 79.0 °F 37.9 °F 23% 29.94 in 10.0 mi SSE 12.7 mph - N/A   Clear
5:53 PM 79.0 °F 39.0 °F 24% 29.93 in 10.0 mi SE 10.4 mph - N/A   Clear
6:53 PM 73.9 °F 39.9 °F 29% 29.94 in 10.0 mi ESE 6.9 mph - N/A   Clear
7:53 PM 71.1 °F 39.9 °F 32% 29.95 in 10.0 mi East 8.1 mph - N/A   Clear
8:53 PM 66.9 °F 39.9 °F 37% 29.96 in 10.0 mi East 6.9 mph - N/A   Clear
9:53 PM 64.0 °F 42.1 °F 45% 29.97 in 10.0 mi East 6.9 mph - N/A   Clear
10:53 PM 63.0 °F 43.0 °F 48% 29.96 in 10.0 mi East 6.9 mph - N/A   Clear
11:53 PM 63.0 °F 44.1 °F 50% 29.96 in 10.0 mi East 9.2 mph - N/A   Clear